Total_Precipitation_Accumulation
1.91 2.34 2.64 3.20 3.81 4.19 4.57 4.73 4.74 4.63 4.43 4.04 3.71 3.46 3.24 3.05 2.80 2.63 2.57 2.45 2.33 2.48 2.89 2.76 2.99 2.94 2.90 2.91 2.96 3.06 2.96 2.60 2.76 2.81 2.32 1.77 1.40 1.41 1.24 1.19 1.23 1.28 1.30
1.81 2.34 2.64 2.85 3.32 3.84 4.29 4.59 4.74 4.62 4.23 3.83 3.62 3.48 3.42 3.04 2.74 2.71 2.79 2.65 2.65 2.69 2.72 2.89 2.86 2.92 3.01 2.93 2.90 2.99 2.80 2.42 2.61 2.86 2.90 2.23 1.83 1.43 1.07 1.19 1.29 1.40 1.51
2.08 2.34 2.53 2.70 2.98 3.37 3.68 3.80 3.95 3.92 3.76 3.78 3.78 3.70 3.65 3.19 3.07 3.06 3.05 2.87 2.87 2.89 2.89 2.86 2.79 2.78 2.61 2.64 2.67 2.69 2.70 2.59 2.50 2.75 3.04 2.58 2.08 1.75 1.27 1.20 1.26 1.45 1.67
1.72 1.87 2.18 2.51 2.68 2.91 3.26 3.49 3.55 3.50 3.41 3.51 3.56 3.42 3.21 3.04 3.14 3.41 3.36 3.10 2.88 2.73 2.54 2.48 2.60 2.60 2.43 2.43 2.12 2.25 2.44 2.44 2.27 2.49 2.54 2.54 2.52 2.41 1.76 1.36 1.22 1.38 1.58
1.46 1.57 1.78 2.10 2.21 2.52 2.81 3.06 3.32 3.41 3.36 3.41 3.34 3.35 3.23 3.21 3.24 3.19 3.18 2.96 2.77 2.45 2.13 2.14 2.28 2.28 2.19 2.10 2.01 2.17 2.07 2.00 2.00 2.22 2.41 2.47 2.50 2.40 2.25 1.86 1.75 1.70 1.59
1.31 1.50 1.65 1.88 2.01 2.16 2.28 2.41 2.63 2.92 3.09 3.14 3.12 3.15 3.09 3.07 2.98 2.88 2.74 2.55 2.39 2.12 1.85 1.76 1.94 2.07 2.06 2.01 1.99 2.07 1.97 1.98 2.10 2.08 2.15 2.37 2.35 2.32 2.46 2.12 1.95 1.89 1.64
1.02 1.24 1.37 1.49 1.62 1.75 1.85 1.97 2.17 2.51 2.68 2.68 2.67 2.78 2.83 2.85 2.76 2.71 2.56 2.36 2.12 1.82 1.76 1.78 1.87 1.92 1.96 1.85 1.92 1.99 2.01 2.13 2.19 2.11 2.04 2.17 2.21 2.31 2.48 2.42 2.18 2.08 1.87
0.79 0.94 1.15 1.37 1.43 1.46 1.59 1.73 1.95 2.19 2.30 2.25 2.38 2.59 2.66 2.76 2.64 2.67 2.43 2.18 1.96 1.85 1.90 1.89 1.78 1.72 1.81 1.72 1.97 1.91 1.95 2.12 2.15 1.94 2.17 2.22 2.24 2.48 2.64 2.70 2.75 2.51 2.24
0.76 0.83 0.92 1.09 1.14 1.20 1.32 1.47 1.82 2.10 2.21 2.24 2.38 2.49 2.56 2.55 2.46 2.37 2.21 1.99 1.98 1.92 2.02 1.99 1.89 1.79 1.85 1.97 2.22 2.16 2.13 2.32 2.26 2.22 2.40 2.36 2.32 2.46 2.56 2.72 2.86 2.91 2.61
0.56 0.64 0.69 0.80 0.92 1.12 1.38 1.53 1.66 1.96 2.08 2.09 2.18 2.21 2.38 2.34 2.23 2.16 2.00 1.84 1.74 1.78 1.94 2.07 2.01 1.94 1.97 2.12 2.28 2.29 2.45 2.57 2.51 2.55 2.64 2.59 2.45 2.53 2.60 2.62 2.79 3.02 2.94
0.46 0.52 0.65 0.80 0.97 1.12 1.29 1.37 1.41 1.57 1.71 1.81 1.99 1.98 1.97 2.07 2.14 2.01 1.79 1.71 1.68 1.72 1.80 2.00 2.07 2.02 2.06 2.16 2.21 2.19 2.48 2.58 2.56 2.52 2.51 2.47 2.55 2.55 2.47 2.56 2.72 2.96 3.00
0.52 0.56 0.74 0.90 1.03 1.18 1.21 1.20 1.25 1.38 1.53 1.71 1.90 1.98 1.99 2.03 2.03 1.90 1.72 1.66 1.67 1.75 1.83 1.96 1.97 1.89 1.90 2.08 2.12 2.19 2.44 2.55 2.45 2.42 2.41 2.23 2.26 2.30 2.18 2.28 2.36 2.49 2.69
0.64 0.74 0.82 0.85 0.88 0.98 1.09 1.06 1.06 1.21 1.39 1.61 1.95 2.11 2.11 2.04 1.97 1.80 1.59 1.54 1.59 1.71 1.77 1.78 1.80 1.85 1.95 2.04 2.06 2.07 2.09 2.11 2.18 2.36 2.45 2.27 2.26 2.13 2.10 2.12 2.08 2.14 2.27
0.71 0.82 0.82 0.88 0.87 0.85 0.94 0.93 0.98 1.08 1.31 1.51 1.71 1.81 1.72 1.68 1.68 1.61 1.51 1.47 1.51 1.59 1.67 1.74 1.82 1.87 1.92 1.95 2.02 2.06 2.01 1.99 2.04 2.16 2.21 2.18 2.14 2.06 2.13 2.03 1.99 2.04 2.17
0.65 0.73 0.73 0.77 0.80 0.81 0.89 0.84 0.84 0.89 1.02 1.20 1.32 1.46 1.46 1.44 1.43 1.48 1.53 1.56 1.65 1.65 1.71 1.77 1.79 1.79 1.78 1.68 1.70 1.77 1.79 1.93 1.89 1.81 1.82 1.82 1.86 1.86 1.87 1.74 1.85 2.02 2.11
0.46 0.44 0.61 0.70 0.66 0.65 0.69 0.64 0.70 0.83 0.97 1.07 1.18 1.38 1.51 1.54 1.54 1.58 1.66 1.71 1.71 1.72 1.75 1.72 1.76 1.75 1.50 1.63 1.62 1.62 1.75 1.85 1.83 1.73 1.63 1.56 1.55 1.49 1.49 1.47 1.54 1.76 1.93
0.41 0.35 0.43 0.58 0.57 0.58 0.59 0.69 0.82 0.95 1.07 1.21 1.35 1.52 1.62 1.71 1.72 1.68 1.78 1.75 1.76 1.80 1.77 1.70 1.68 1.72 1.76 1.77 1.60 1.46 1.47 1.59 1.62 1.59 1.57 1.42 1.33 1.46 1.42 1.45 1.44 1.46 1.59
0.41 0.36 0.38 0.43 0.49 0.56 0.63 0.78 1.05 1.27 1.31 1.46 1.64 1.74 1.84 1.81 1.79 1.78 1.81 1.88 1.95 1.97 1.93 1.87 1.79 1.79 1.78 1.72 1.50 1.48 1.43 1.47 1.50 1.53 1.56 1.56 1.48 1.50 1.60 1.58 1.51 1.40 1.37
0.44 0.44 0.43 0.49 0.59 0.63 0.68 0.89 1.11 1.36 1.49 1.55 1.68 1.85 1.95 1.99 2.01 2.03 1.98 2.03 2.11 2.06 1.98 1.94 1.98 1.93 1.95 1.98 1.77 1.74 1.60 1.63 1.65 1.69 1.69 1.68 1.59 1.68 1.61 1.55 1.53 1.47 1.44
0.55 0.55 0.56 0.65 0.80 0.90 0.94 1.08 1.19 1.34 1.51 1.59 1.71 1.89 2.11 2.17 2.20 2.34 2.41 2.33 2.28 2.14 2.14 2.14 2.13 2.15 2.18 2.38 2.16 1.96 1.81 1.84 1.86 1.94 1.93 1.94 1.76 1.73 1.63 1.50 1.52 1.51 1.52
0.67 0.65 0.67 0.79 0.99 1.13 1.19 1.28 1.42 1.52 1.54 1.63 1.76 1.95 2.14 2.24 2.31 2.47 2.53 2.49 2.44 2.40 2.34 2.27 2.30 2.29 2.31 2.46 2.22 2.02 1.90 1.97 2.10 2.09 1.98 2.02 1.97 1.76 1.72 1.64 1.58 1.57 1.55
0.77 0.78 0.83 0.97 1.19 1.36 1.32 1.37 1.44 1.48 1.53 1.55 1.67 1.80 1.97 2.02 2.11 2.36 2.44 2.50 2.52 2.47 2.38 2.31 2.19 2.21 2.21 2.16 2.05 1.95 1.90 1.98 2.09 2.15 2.05 2.00 1.93 1.67 1.56 1.43 1.42 1.42 1.31
0.82 0.85 0.91 1.11 1.36 1.51 1.53 1.59 1.48 1.54 1.57 1.60 1.73 1.87 1.95 2.02 2.14 2.23 2.25 2.32 2.40 2.36 2.25 2.22 2.15 2.12 2.14 2.12 1.88 1.66 1.64 1.66 1.70 1.84 1.93 1.83 1.70 1.47 1.27 1.22 1.19 1.09 0.97
0.77 0.81 0.90 0.99 1.10 1.30 1.47 1.56 1.61 1.66 1.66 1.68 1.73 1.81 1.93 1.94 1.98 2.11 2.20 2.30 2.41 2.48 2.37 2.26 2.17 2.14 2.08 1.96 1.76 1.56 1.47 1.56 1.65 1.73 1.76 1.62 1.51 1.32 1.19 1.11 1.01 0.94 0.98
0.80 0.82 0.90 0.91 0.97 1.07 1.19 1.28 1.38 1.49 1.54 1.57 1.62 1.67 1.70 1.78 1.87 1.92 2.00 2.02 2.12 2.13 2.11 2.06 2.04 2.02 1.96 1.79 1.68 1.54 1.42 1.49 1.61 1.67 1.70 1.58 1.54 1.46 1.33 1.24 1.17 1.14 1.14
0.87 0.88 0.89 0.86 0.89 0.96 1.12 1.23 1.33 1.46 1.57 1.64 1.66 1.59 1.55 1.61 1.66 1.70 1.69 1.70 1.65 1.66 1.62 1.63 1.63 1.59 1.52 1.38 1.24 1.21 1.21 1.25 1.37 1.43 1.56 1.64 1.60 1.55 1.46 1.33 1.22 1.17 1.13